Location: Elstree
(51.6403°N, 0.2969°W)
Time: 18:28:51
(UTC+00:00)

USA 306 - Pass Details

Date: 03 March 2021
Orbit: 564 x 577 km, 54.0° (Epoch: 17 April)

Event Time Altitude Azimuth Distance (km) Brightness Sun altitude
Rises 18:18:30 0° 259° (W) 2,773 8.8 -6.0°
Reaches altitude 10° 18:20:45 10° 261° (W) 1,874 7.3 -6.3°
Maximum altitude 18:25:01 73° 346° (NNW) 598 3.0 -7.0°
Drops below altitude 10° 18:29:16 10° 73° (ENE) 1,869 4.9 -7.6°
Enters shadow 18:29:30 - 73° (ENE) 1,959 5.0 -7.7°
